Waskish, MN

1:24 AM CST on November 24, 2017 (GMT -0600)
Waskish Municipal

Weather History for KVWU - October, 2012

Change the Weather History Date:

Thursday, October 11, 2012

  Actual Average (KBDE) Record (KBDE)
Temperature  
Mean Temperature 34 °F -  
Max Temperature 39 °F 55 °F 88 °F (2015)
Min Temperature 30 °F 36 °F 21 °F (1988)
Degree Days  
Heating Degree Days 30    
Moisture  
Dew Point 28 °F    
Average Humidity 77    
Maximum Humidity 100    
Minimum Humidity 61    
Precipitation  
Precipitation 0.00 in - - ()
Sea Level Pressure  
Sea Level Pressure 30.13 in    
Wind  
Wind Speed 10 mph (WNW)    
Max Wind Speed 17 mph    
Max Gust Speed 26 mph    
Visibility 10 miles    
Events      
Averages and records for this station are not official NWS values.
T = Trace of Precipitation, MM = Missing Value Source: NWS Daily Summary

Daily Weather History Graph

Daily Weather History Graph

Search for Another Location

Airport or City:

Trip Planner

Search our weather history database for the weather conditions in past years. The results will help you decide how hot, cold, wet, or windy it might be!

Date:

Astronomy

Oct. 11, 2012 Rise Set
Actual Time 7:32 AM CDT 6:36 PM CDT
Civil Twilight 7:01 AM CDT 7:07 PM CDT
Nautical Twilight 6:25 AM CDT 7:43 PM CDT
Astronomical Twilight 5:48 AM CDT 8:19 PM CDT
Moon 2:53 AM CDT (10/11) 4:27 PM CDT (10/11)
Length of Visible Light 12h 06m
Length of Day
11h 03m
Waning Crescent, 18% of the Moon is Illuminated
Oct 11
Waning Crescent
Oct 15
New
Oct 21
First Quarter
Oct 29
Full
Nov 6
Last Quarter

Hourly Weather History & Observations

Time (CDT) Temp. Windchill Dew Point Humidity Pressure Visibility Wind Dir Wind Speed Gust Speed Precip Events Conditions
12:13 AM 35.6 °F 31.7 °F 33.8 °F 93% 29.91 in 10.0 mi South 4.6 mph - N/A   Overcast
12:32 AM 35.6 °F 32.8 °F 33.8 °F 93% 29.92 in 10.0 mi SW 3.5 mph - N/A   Overcast
1:32 AM 35.6 °F 28.0 °F 35.6 °F 100% 29.92 in 10.0 mi West 10.4 mph - N/A   Overcast
1:53 AM 35.6 °F 28.6 °F 35.6 °F 100% 29.92 in 10.0 mi West 9.2 mph - N/A   Mostly Cloudy
2:13 AM 35.6 °F 28.0 °F 35.6 °F 100% 29.93 in 10.0 mi West 10.4 mph - N/A   Overcast
2:32 AM 35.6 °F 27.5 °F 35.6 °F 100% 29.93 in 10.0 mi West 11.5 mph - N/A   Unknown
2:53 AM 35.6 °F 27.1 °F 33.8 °F 93% 29.93 in 10.0 mi West 12.7 mph 16.1 mph N/A   Scattered Clouds
3:13 AM 35.6 °F 28.0 °F 33.8 °F 93% 29.94 in 10.0 mi WNW 10.4 mph 17.3 mph N/A   Mostly Cloudy
3:32 AM 33.8 °F 26.4 °F 33.8 °F 100% 29.94 in 10.0 mi WNW 9.2 mph 17.3 mph N/A   Overcast
3:53 AM 33.8 °F 25.3 °F 32.0 °F 93% 29.95 in 10.0 mi WNW 11.5 mph 17.3 mph N/A   Mostly Cloudy
4:13 AM 33.8 °F 26.4 °F 32.0 °F 93% 29.96 in 10.0 mi WNW 9.2 mph - N/A   Clear
4:32 AM 33.8 °F 25.8 °F 32.0 °F 93% 29.97 in 10.0 mi WNW 10.4 mph 16.1 mph N/A   Clear
4:53 AM 33.8 °F 25.8 °F 30.2 °F 87% 29.97 in 10.0 mi WNW 10.4 mph 19.6 mph N/A   Clear
5:13 AM 33.8 °F 24.3 °F 30.2 °F 87% 29.98 in 10.0 mi WNW 13.8 mph 19.6 mph N/A   Clear
5:32 AM 32.0 °F 21.6 °F 28.4 °F 87% 29.99 in 10.0 mi WNW 15.0 mph 21.9 mph N/A   Clear
5:53 AM 32.0 °F 23.0 °F 28.4 °F 87% 30.00 in 10.0 mi WNW 11.5 mph 19.6 mph N/A   Clear
6:13 AM 32.0 °F 22.5 °F 28.4 °F 87% 30.01 in 10.0 mi WNW 12.7 mph 21.9 mph N/A   Clear
6:32 AM 30.2 °F 19.8 °F 26.6 °F 86% 30.01 in 10.0 mi WNW 13.8 mph 19.6 mph N/A   Clear
6:53 AM 30.2 °F 19.8 °F 26.6 °F 86% 30.02 in 10.0 mi WNW 13.8 mph 20.7 mph N/A   Clear
7:12 AM 30.2 °F 19.8 °F 26.6 °F 86% 30.03 in 10.0 mi WNW 13.8 mph 21.9 mph N/A   Clear
7:32 AM 30.2 °F 19.3 °F 26.6 °F 86% 30.04 in 10.0 mi WNW 15.0 mph 19.6 mph N/A   Clear
7:53 AM 30.2 °F 20.2 °F 26.6 °F 86% 30.05 in 10.0 mi WNW 12.7 mph 18.4 mph N/A   Clear
8:12 AM 30.2 °F 20.2 °F 26.6 °F 86% 30.06 in 10.0 mi WNW 12.7 mph 18.4 mph N/A   Clear
8:32 AM 32.0 °F 22.5 °F 26.6 °F 80% 30.07 in 10.0 mi West 12.7 mph 17.3 mph N/A   Clear
8:53 AM 32.0 °F 22.1 °F 26.6 °F 80% 30.08 in 10.0 mi WNW 13.8 mph 17.3 mph N/A   Clear
9:12 AM 32.0 °F 22.5 °F 26.6 °F 80% 30.09 in 10.0 mi WNW 12.7 mph 18.4 mph N/A   Clear
9:33 AM 33.8 °F 24.8 °F 28.4 °F 81% 30.10 in 10.0 mi WNW 12.7 mph 18.4 mph N/A   Clear
9:53 AM 33.8 °F 25.3 °F 28.4 °F 81% 30.11 in 10.0 mi WNW 11.5 mph 16.1 mph N/A   Clear
10:12 AM 35.6 °F 26.2 °F 28.4 °F 75% 30.12 in 10.0 mi NW 15.0 mph 20.7 mph N/A   Clear
10:33 AM 35.6 °F 26.6 °F 28.4 °F 75% 30.12 in 10.0 mi WNW 13.8 mph 19.6 mph N/A   Clear
10:53 AM 37.4 °F 27.8 °F 26.6 °F 65% 30.13 in 10.0 mi WNW 17.3 mph 26.5 mph N/A   Clear
11:12 AM 37.4 °F 28.2 °F 26.6 °F 65% 30.14 in 10.0 mi WNW 16.1 mph 23.0 mph N/A   Clear
11:33 AM 37.4 °F 28.9 °F 26.6 °F 65% 30.15 in 10.0 mi WNW 13.8 mph 21.9 mph N/A   Scattered Clouds
11:52 AM 37.4 °F 28.9 °F 26.6 °F 65% 30.16 in 10.0 mi WNW 13.8 mph 18.4 mph N/A   Scattered Clouds
12:12 PM 37.4 °F 28.2 °F 26.6 °F 65% 30.17 in 10.0 mi WNW 16.1 mph 20.7 mph N/A   Mostly Cloudy
12:52 PM 37.4 °F 30.8 °F 26.6 °F 65% 30.17 in 10.0 mi WNW 9.2 mph 18.4 mph N/A   Overcast
1:12 PM 37.4 °F 29.8 °F 26.6 °F 65% 30.18 in 10.0 mi WNW 11.5 mph - N/A   Overcast
1:33 PM 39.2 °F 32.0 °F 26.6 °F 61% 30.18 in 10.0 mi WNW 11.5 mph 19.6 mph N/A   Overcast
1:52 PM 39.2 °F 32.5 °F 26.6 °F 61% 30.18 in 10.0 mi WNW 10.4 mph 16.1 mph N/A   Overcast
2:33 PM 39.2 °F 30.8 °F 26.6 °F 61% 30.20 in 10.0 mi WNW 15.0 mph 19.6 mph N/A   Overcast
2:52 PM 39.2 °F 31.6 °F 26.6 °F 61% 30.20 in 10.0 mi West 12.7 mph 17.3 mph N/A   Overcast
3:13 PM 39.2 °F 31.6 °F 26.6 °F 61% 30.20 in 10.0 mi West 12.7 mph 20.7 mph N/A   Overcast
3:33 PM 39.2 °F 32.0 °F 26.6 °F 61% 30.21 in 10.0 mi West 11.5 mph 17.3 mph N/A   Overcast
3:52 PM 39.2 °F 32.0 °F 26.6 °F 61% 30.22 in 10.0 mi West 11.5 mph - N/A   Overcast
4:13 PM 39.2 °F 31.2 °F 26.6 °F 61% 30.22 in 10.0 mi WNW 13.8 mph 18.4 mph N/A   Overcast
4:33 PM 39.2 °F 32.5 °F 26.6 °F 61% 30.23 in 10.0 mi WNW 10.4 mph 17.3 mph N/A   Overcast
4:52 PM 39.2 °F 32.0 °F 26.6 °F 61% 30.23 in 10.0 mi WNW 11.5 mph - N/A   Overcast
5:33 PM 39.2 °F 32.5 °F 26.6 °F 61% 30.24 in 10.0 mi West 10.4 mph - N/A   Scattered Clouds
6:13 PM 37.4 °F 29.8 °F 26.6 °F 65% 30.26 in 10.0 mi West 11.5 mph 19.6 mph N/A   Scattered Clouds
6:32 PM 37.4 °F 29.8 °F 26.6 °F 65% 30.26 in 10.0 mi West 11.5 mph 17.3 mph N/A   Mostly Cloudy
6:52 PM 37.4 °F 30.3 °F 26.6 °F 65% 30.27 in 10.0 mi West 10.4 mph 17.3 mph N/A   Scattered Clouds
7:13 PM 37.4 °F 30.8 °F 26.6 °F 65% 30.28 in 10.0 mi West 9.2 mph - N/A   Mostly Cloudy
7:33 PM 35.6 °F 28.6 °F 26.6 °F 70% 30.29 in 10.0 mi West 9.2 mph - N/A   Scattered Clouds
7:52 PM 35.6 °F 29.2 °F 26.6 °F 70% 30.29 in 10.0 mi West 8.1 mph - N/A   Clear
8:13 PM 35.6 °F 29.2 °F 26.6 °F 70% 30.29 in 10.0 mi WNW 8.1 mph - N/A   Clear
8:32 PM 35.6 °F 29.2 °F 26.6 °F 70% 30.30 in 10.0 mi WNW 8.1 mph - N/A   Clear
8:52 PM 35.6 °F 29.9 °F 26.6 °F 70% 30.30 in 10.0 mi WNW 6.9 mph - N/A   Clear
9:13 PM 33.8 °F 27.7 °F 26.6 °F 75% 30.31 in 10.0 mi WNW 6.9 mph - N/A   Clear
9:32 PM 33.8 °F 27.7 °F 26.6 °F 75% 30.32 in 10.0 mi WNW 6.9 mph - N/A   Clear
9:52 PM 33.8 °F 27.7 °F 26.6 °F 75% 30.33 in 10.0 mi NW 6.9 mph - N/A   Clear
10:52 PM 32.0 °F 27.5 °F 26.6 °F 80% 30.34 in 10.0 mi NNW 4.6 mph - N/A   Clear
11:13 PM 32.0 °F 27.5 °F 26.6 °F 80% 30.34 in 10.0 mi NW 4.6 mph - N/A   Clear
11:32 PM 30.2 °F 26.7 °F 24.8 °F 80% 30.34 in 10.0 mi NW 3.5 mph - N/A   Clear
11:52 PM 30.2 °F 25.4 °F 26.6 °F 86% 30.35 in 10.0 mi NW 4.6 mph - N/A   Clear